This demonstration page uses our WeatherBlox Daily Observations layout. Learn more.

Left ArrowRight Arrow

Hourly Observations for September 2, 2022

Temp ( °F °C ) Dew Point ( °F °C ) Humidity (%) Winds ( mph kmh ) Pressure ( in mb ) Visibility ( mi km ) Precip ( " mm )
12:15 am 00:15 Clear 68 20 64 18 88 88 Calm 30.08 1019 10 16 0.00 0.00
12:35 am 00:35 Clear 68 20 64 18 88 88 Calm 30.09 1019 10 16 0.00 0.00
12:55 am 00:55 Clear 66 19 63 17 88 88 Calm 30.09 1019 10 16 0.00 0.00
1:15 am 01:15 Clear 66 19 63 17 88 88 Calm 30.10 1019 10 16 0.00 0.00
1:35 am 01:35 Clear 64 18 63 17 94 94 Calm 30.10 1019 10 16 0.00 0.00
1:55 am 01:55 Clear 64 18 63 17 94 94 Calm 30.10 1019 10 16 0.00 0.00
2:15 am 02:15 Clear 64 18 63 17 94 94 Calm 30.12 1020 10 16 0.00 0.00
2:35 am 02:35 Clear 64 18 63 17 94 94 N 3 6 30.10 1019 10 16 0.00 0.00
2:55 am 02:55 Clear 66 19 63 17 88 88 N 3 6 30.11 1020 10 16 0.00 0.00
3:15 am 03:15 Clear 64 18 61 16 88 88 Calm 30.12 1020 10 16 0.00 0.00
3:35 am 03:35 Clear 64 18 63 17 94 94 Calm 30.12 1020 10 16 0.00 0.00
3:55 am 03:55 Clear 63 17 61 16 94 94 Calm 30.13 1020 10 16 0.00 0.00
4:15 am 04:15 Clear 63 17 61 16 94 94 Calm 30.15 1021 10 16 0.00 0.00
4:35 am 04:35 Clear 63 17 63 17 100 100 Calm 30.15 1021 10 16 0.00 0.00
4:55 am 04:55 Clear 61 16 61 16 100 100 N 3 6 30.15 1021 10 16 0.00 0.00
5:15 am 05:15 Mostly Cloudy 64 18 61 16 88 88 Calm 30.15 1021 10 16 0.00 0.00
5:35 am 05:35 Cloudy 63 17 63 17 100 100 N 5 7 30.17 1022 10 16 0.00 0.00
5:55 am 05:55 Mostly Cloudy 66 19 63 17 88 88 NNE 7 11 30.17 1022 10 16 0.00 0.00
6:15 am 06:15 Partly Cloudy 64 18 61 16 88 88 NNE 7 11 30.17 1022 10 16 0.00 0.00
6:35 am 06:35 Clear 64 18 61 16 88 88 NE 6 9 30.20 1023 10 16 0.00 0.00
6:55 am 06:55 Sunny 64 18 61 16 88 88 NNE 6 9 30.20 1023 10 16 0.00 0.00
7:15 am 07:15 Sunny 64 18 61 16 88 88 NNE 7 11 30.20 1023 10 16 0.00 0.00
7:35 am 07:35 Sunny 64 18 61 16 88 88 NNE 8 13 30.22 1023 10 16 0.00 0.00
7:55 am 07:55 Sunny 64 18 59 15 83 83 NNE 10 17 30.22 1024 10 16 0.00 0.00
8:15 am 08:15 Sunny 66 19 59 15 78 78 NNE 8 13 30.22 1023 10 16 0.00 0.00
8:35 am 08:35 Sunny 68 20 59 15 73 73 NNE 5 7 30.22 1023 10 16 0.00 0.00
8:55 am 08:55 Sunny 68 20 59 15 73 73 NE 3 6 30.23 1024 10 16 0.00 0.00
9:15 am 09:15 Sunny 70 21 57 14 64 64 NE 6 9 30.23 1024 10 16 0.00 0.00
9:35 am 09:35 Sunny 70 21 57 14 64 64 NE 7 11 30.23 1024 10 16 0.00 0.00
9:55 am 09:55 Sunny 72 22 59 15 65 65 NE 7 11 30.23 1024 10 16 0.00 0.00
10:15 am 10:15 Sunny 72 22 59 15 65 65 ENE 6 9 30.23 1024 10 16 0.00 0.00
10:35 am 10:35 Sunny 73 23 59 15 61 61 NE 6 9 30.23 1024 N/A 0.00 0.00
10:55 am 10:55 Sunny 77 25 59 15 54 54 ESE 5 7 30.22 1023 N/A 0.00 0.00
11:15 am 11:15 Sunny 77 25 61 16 57 57 NE 7 11 30.24 1024 N/A 0.00 0.00
11:35 am 11:35 Sunny 77 25 61 16 57 57 ENE 7 11 30.22 1023 N/A 0.00 0.00
11:55 am 11:55 Sunny 79 26 61 16 54 54 E 6 9 30.22 1023 N/A 0.00 0.00
12:15 pm 12:15 Sunny 79 26 61 16 54 54 SE 6 9 30.21 1023 N/A 0.00 0.00
12:35 pm 12:35 Sunny 81 27 61 16 51 51 ESE 3 6 30.21 1023 N/A 0.00 0.00
12:55 pm 12:55 Sunny 81 27 61 16 51 51 SE 8 13 30.21 1023 N/A 0.00 0.00
1:15 pm 13:15 Sunny 81 27 61 16 51 51 S 3 6 30.21 1023 N/A 0.00 0.00
1:35 pm 13:35 Sunny 82 28 61 16 48 48 NE 6 9 30.20 1023 N/A 0.00 0.00
1:55 pm 13:55 Sunny 82 28 63 17 51 51 ENE 5 7 30.20 1023 N/A 0.00 0.00
2:15 pm 14:15 Sunny 84 29 61 16 45 45 Calm 30.20 1023 N/A 0.00 0.00
2:35 pm 14:35 Sunny 84 29 61 16 45 45 NE 7 11 30.19 1022 N/A 0.00 0.00
2:55 pm 14:55 Partly Cloudy 84 29 61 16 45 45 SE 5 7 30.19 1022 10 16 0.00 0.00
3:15 pm 15:15 Partly Cloudy 86 30 59 15 40 40 E 5 7 30.19 1022 10 16 0.00 0.00
3:35 pm 15:35 Mostly Cloudy 86 30 61 16 43 43 Calm 30.18 1022 10 16 0.00 0.00
3:55 pm 15:55 Mostly Cloudy 86 30 61 16 43 43 Calm 30.18 1022 10 16 0.00 0.00
4:15 pm 16:15 Mostly Cloudy 86 30 61 16 43 43 SE 5 7 30.17 1022 10 16 0.00 0.00
4:35 pm 16:35 Mostly Cloudy 86 30 61 16 43 43 ESE 9 15 30.18 1022 10 16 0.00 0.00
4:55 pm 16:55 Cloudy 86 30 63 17 46 46 E 7 11 30.18 1022 10 16 0.00 0.00
5:15 pm 17:15 Mostly Cloudy 86 30 63 17 46 46 E 8 13 30.18 1022 10 16 0.00 0.00
5:35 pm 17:35 Mostly Cloudy 84 29 63 17 48 48 E 7 11 30.18 1022 10 16 0.00 0.00
5:55 pm 17:55 Partly Cloudy 82 28 63 17 51 51 ENE 3 6 30.18 1022 10 16 0.00 0.00
6:15 pm 18:15 Cloudy 82 28 63 17 51 51 E 6 9 30.18 1022 10 16 0.00 0.00
6:35 pm 18:35 Cloudy 82 28 63 17 51 51 ESE 5 7 30.18 1022 10 16 0.00 0.00
6:55 pm 18:55 Mostly Cloudy 82 28 63 17 51 51 ESE 7 11 30.18 1022 10 16 0.00 0.00
7:15 pm 19:15 Partly Cloudy 82 28 63 17 51 51 ESE 5 7 30.18 1022 10 16 0.00 0.00
7:35 pm 19:35 Mostly Cloudy 81 27 63 17 54 54 ESE 6 9 30.18 1022 10 16 0.00 0.00
7:55 pm 19:55 Partly Cloudy 81 27 64 18 58 58 SE 8 13 30.19 1022 10 16 0.00 0.00
8:15 pm 20:15 Clear 81 27 64 18 58 58 ESE 6 9 30.19 1022 10 16 0.00 0.00
8:35 pm 20:35 Clear 79 26 64 18 61 61 ESE 7 11 30.19 1022 10 16 0.00 0.00
8:55 pm 20:55 Clear 79 26 64 18 61 61 SE 8 13 30.20 1023 10 16 0.00 0.00
9:15 pm 21:15 Clear 79 26 64 18 61 61 ESE 5 7 30.21 1023 10 16 0.00 0.00
9:35 pm 21:35 Clear 77 25 64 18 65 65 SE 6 9 30.21 1023 10 16 0.00 0.00
9:55 pm 21:55 Clear 77 25 64 18 65 65 ESE 7 11 30.21 1023 10 16 0.00 0.00
10:15 pm 22:15 Clear 77 25 66 19 69 69 ESE 6 9 30.22 1023 10 16 0.00 0.00
10:35 pm 22:35 Clear 77 25 66 19 69 69 ESE 5 7 30.22 1023 10 16 0.00 0.00
10:55 pm 22:55 Clear 75 24 66 19 74 74 ESE 5 7 30.23 1024 10 16 0.00 0.00
11:15 pm 23:15 Clear 75 24 66 19 74 74 SE 7 11 30.23 1024 10 16 0.00 0.00
11:35 pm 23:35 Clear 75 24 68 20 78 78 SE 5 7 30.23 1024 10 16 0.00 0.00
11:55 pm 23:55 Clear 75 24 68 20 78 78 SSE 7 11 30.24 1024 10 16 0.00 0.00

Powered by AerisWeather